Data supplied by UK-AIR on 26/3/2019
All Data GMT hour ending 
Status: R =Ratified P=Provisional,P*=As supplied
,,Walsall Woodlands,,,,,,,,,,,,,,,,,,,,,,,
Date,time,"Nitric oxide",status,unit,"Nitrogen dioxide",status,unit,"Nitrogen oxides as nitrogen dioxide",status,unit,"Ozone",status,unit
 
01-01-2018,01:00,0.65114,R,ugm-3,6.86178,R,ugm-3,7.86018,R,ugm-3,68.59953,R,ugm-3
01-01-2018,02:00,1.63948,R,ugm-3,9.05811,R,ugm-3,11.57194,R,ugm-3,63.39241,R,ugm-3
01-01-2018,03:00,0.69765,R,ugm-3,4.55250,R,ugm-3,5.62221,R,ugm-3,72.36209,R,ugm-3
01-01-2018,04:00,0.38371,R,ugm-3,2.63215,R,ugm-3,3.22049,R,ugm-3,75.93988,R,ugm-3
01-01-2018,05:00,0.41859,R,ugm-3,2.25115,R,ugm-3,2.89298,R,ugm-3,76.74614,R,ugm-3
01-01-2018,06:00,0.41859,R,ugm-3,1.92365,R,ugm-3,2.56548,R,ugm-3,78.05632,R,ugm-3
01-01-2018,07:00,0.48836,R,ugm-3,3.94547,R,ugm-3,4.69428,R,ugm-3,77.04849,R,ugm-3
01-01-2018,08:00,0.55812,R,ugm-3,7.93235,R,ugm-3,8.78812,R,ugm-3,70.19526,R,ugm-3
01-01-2018,09:00,1.43018,R,ugm-3,10.14320,R,ugm-3,12.33612,R,ugm-3,67.62529,R,ugm-3
01-01-2018,10:00,1.63948,R,ugm-3,13.58863,R,ugm-3,16.10246,R,ugm-3,62.18302,R,ugm-3
01-01-2018,11:00,1.32553,R,ugm-3,13.30581,R,ugm-3,15.33827,R,ugm-3,63.64437,R,ugm-3
01-01-2018,12:00,2.09295,R,ugm-3,12.72956,R,ugm-3,15.93870,R,ugm-3,62.68693,R,ugm-3
01-01-2018,13:00,2.79060,R,ugm-3,12.42403,R,ugm-3,16.70289,R,ugm-3,62.38458,R,ugm-3
01-01-2018,14:00,2.02318,R,ugm-3,8.52435,R,ugm-3,11.62652,R,ugm-3,68.22999,R,ugm-3
01-01-2018,15:00,1.46507,R,ugm-3,10.79932,R,ugm-3,13.04572,R,ugm-3,65.45846,R,ugm-3
01-01-2018,16:00,1.11624,R,ugm-3,8.76870,R,ugm-3,10.48024,R,ugm-3,69.23782,R,ugm-3
01-01-2018,17:00,1.95342,R,ugm-3,9.34092,R,ugm-3,12.33612,R,ugm-3,68.93547,R,ugm-3
01-01-2018,18:00,0.62789,R,ugm-3,5.15073,R,ugm-3,6.11348,R,ugm-3,74.32735,R,ugm-3
01-01-2018,19:00,0.62789,R,ugm-3,3.94987,R,ugm-3,4.91261,R,ugm-3,77.45162,R,ugm-3
01-01-2018,20:00,0.52324,R,ugm-3,2.63654,R,ugm-3,3.43883,R,ugm-3,78.61062,R,ugm-3
01-01-2018,21:00,0.48836,R,ugm-3,3.89089,R,ugm-3,4.63969,R,ugm-3,75.83910,R,ugm-3
01-01-2018,22:00,0.45347,R,ugm-3,4.43564,R,ugm-3,5.13095,R,ugm-3,74.68009,R,ugm-3
01-01-2018,23:00,0.31394,R,ugm-3,4.43124,R,ugm-3,4.91261,R,ugm-3,72.36209,R,ugm-3
01-01-2018,24:00,0.41859,R,ugm-3,2.74242,R,ugm-3,3.38425,R,ugm-3,72.41248,R,ugm-3
02-01-2018,01:00,0.41855,R,ugm-3,2.41651,R,ugm-3,3.05828,R,ugm-3,71.15269,R,ugm-3
02-01-2018,02:00,0.62783,R,ugm-3,3.73398,R,ugm-3,4.69664,R,ugm-3,66.41590,R,ugm-3
02-01-2018,03:00,0.41855,R,ugm-3,4.43715,R,ugm-3,5.07892,R,ugm-3,66.21433,R,ugm-3
02-01-2018,04:00,0.45343,R,ugm-3,4.71134,R,ugm-3,5.40660,R,ugm-3,67.07099,R,ugm-3
02-01-2018,05:00,0.45343,R,ugm-3,6.45893,R,ugm-3,7.15418,R,ugm-3,51.55043,R,ugm-3
02-01-2018,06:00,0.76735,R,ugm-3,14.55170,R,ugm-3,15.72828,R,ugm-3,40.06118,R,ugm-3
02-01-2018,07:00,4.70871,R,ugm-3,29.91629,R,ugm-3,37.13621,R,ugm-3,35.52596,R,ugm-3
02-01-2018,08:00,6.03412,R,ugm-3,54.37087,R,ugm-3,63.62307,R,ugm-3,14.66391,R,ugm-3
02-01-2018,09:00,2.65083,R,ugm-3,39.89817,R,ugm-3,43.96272,R,ugm-3,31.49464,R,ugm-3
02-01-2018,10:00,2.89499,R,ugm-3,37.12088,R,ugm-3,41.55979,R,ugm-3,32.14973,R,ugm-3
02-01-2018,11:00,6.41780,R,ugm-3,50.01435,R,ugm-3,59.85484,R,ugm-3,18.59444,R,ugm-3
02-01-2018,12:00,17.43967,R,ugm-3,56.43374,R,ugm-3,83.17419,R,ugm-3,20.61009,R,ugm-3
02-01-2018,13:00,2.65083,R,ugm-3,30.39567,R,ugm-3,34.46022,R,ugm-3,41.16979,R,ugm-3
02-01-2018,14:00,2.75547,R,ugm-3,22.80799,R,ugm-3,27.03298,R,ugm-3,47.21677,R,ugm-3
02-01-2018,15:00,3.94136,R,ugm-3,26.34162,R,ugm-3,32.38496,R,ugm-3,44.34445,R,ugm-3
02-01-2018,16:00,2.92986,R,ugm-3,36.57589,R,ugm-3,41.06828,R,ugm-3,39.15414,R,ugm-3
02-01-2018,17:00,2.30204,R,ugm-3,25.96078,R,ugm-3,29.49052,R,ugm-3,55.22900,R,ugm-3
02-01-2018,18:00,1.56957,R,ugm-3,23.31565,R,ugm-3,25.72229,R,ugm-3,57.09349,R,ugm-3
02-01-2018,19:00,0.94174,R,ugm-3,19.47244,R,ugm-3,20.91643,R,ugm-3,63.49320,R,ugm-3
02-01-2018,20:00,0.90686,R,ugm-3,11.60717,R,ugm-3,12.99768,R,ugm-3,69.74173,R,ugm-3
02-01-2018,21:00,0.73247,R,ugm-3,8.27018,R,ugm-3,9.39328,R,ugm-3,68.98586,R,ugm-3
02-01-2018,22:00,0.62783,R,ugm-3,8.48523,R,ugm-3,9.44789,R,ugm-3,64.70259,R,ugm-3
02-01-2018,23:00,0.62783,R,ugm-3,5.15390,R,ugm-3,6.11655,R,ugm-3,76.64536,R,ugm-3
02-01-2018,24:00,0.62783,R,ugm-3,3.35170,R,ugm-3,4.31435,R,ugm-3,80.02158,R,ugm-3
03-01-2018,01:00,0.46502,R,ugm-3,2.92962,R,ugm-3,3.64264,R,ugm-3,82.30600,R,ugm-3
03-01-2018,02:00,0.41851,R,ugm-3,2.69130,R,ugm-3,3.33301,R,ugm-3,82.89389,R,ugm-3
03-01-2018,03:00,0.45339,R,ugm-3,1.81823,R,ugm-3,2.51342,R,ugm-3,88.23539,R,ugm-3
03-01-2018,04:00,0.41851,R,ugm-3,0.88820,R,ugm-3,1.52991,R,ugm-3,88.58813,R,ugm-3
03-01-2018,05:00,0.41851,R,ugm-3,1.10675,R,ugm-3,1.74847,R,ugm-3,86.57247,R,ugm-3
03-01-2018,06:00,0.52314,R,ugm-3,3.07727,R,ugm-3,3.87941,R,ugm-3,81.48293,R,ugm-3
03-01-2018,07:00,0.94166,R,ugm-3,4.02010,R,ugm-3,5.46396,R,ugm-3,80.02158,R,ugm-3
03-01-2018,08:00,0.94166,R,ugm-3,5.76857,R,ugm-3,7.21242,R,ugm-3,77.40123,R,ugm-3
03-01-2018,09:00,0.94166,R,ugm-3,5.60465,R,ugm-3,7.04850,R,ugm-3,77.25006,R,ugm-3
03-01-2018,10:00,0.90678,R,ugm-3,4.89317,R,ugm-3,6.28355,R,ugm-3,78.20749,R,ugm-3
03-01-2018,11:00,1.08116,R,ugm-3,4.24332,R,ugm-3,5.90107,R,ugm-3,78.45945,R,ugm-3
03-01-2018,12:00,1.36017,R,ugm-3,4.47118,R,ugm-3,6.55675,R,ugm-3,77.40123,R,ugm-3
03-01-2018,13:00,1.60431,R,ugm-3,4.37005,R,ugm-3,6.82995,R,ugm-3,77.25006,R,ugm-3
03-01-2018,14:00,1.25554,R,ugm-3,5.50584,R,ugm-3,7.43098,R,ugm-3,76.04066,R,ugm-3
03-01-2018,15:00,1.56943,R,ugm-3,12.45554,R,ugm-3,14.86196,R,ugm-3,68.88508,R,ugm-3
03-01-2018,16:00,1.36017,R,ugm-3,16.16405,R,ugm-3,18.24961,R,ugm-3,63.29163,R,ugm-3
03-01-2018,17:00,1.42992,R,ugm-3,16.49421,R,ugm-3,18.68673,R,ugm-3,64.40024,R,ugm-3
03-01-2018,18:00,1.32530,R,ugm-3,15.45257,R,ugm-3,17.48466,R,ugm-3,66.51668,R,ugm-3
03-01-2018,19:00,1.04629,R,ugm-3,8.94115,R,ugm-3,10.54544,R,ugm-3,72.91639,R,ugm-3
03-01-2018,20:00,1.42992,R,ugm-3,10.26530,R,ugm-3,12.45782,R,ugm-3,71.25348,R,ugm-3
03-01-2018,21:00,0.90678,R,ugm-3,9.20970,R,ugm-3,10.60008,R,ugm-3,72.71483,R,ugm-3
03-01-2018,22:00,0.55802,R,ugm-3,7.44960,R,ugm-3,8.30521,R,ugm-3,73.36992,R,ugm-3
03-01-2018,23:00,0.59290,R,ugm-3,6.68581,R,ugm-3,7.59490,R,ugm-3,73.47070,R,ugm-3
03-01-2018,24:00,0.69752,R,ugm-3,5.76042,R,ugm-3,6.82995,R,ugm-3,75.33518,R,ugm-3
04-01-2018,01:00,0.46497,R,ugm-3,4.82664,R,ugm-3,5.53960,R,ugm-3,75.31838,R,ugm-3
04-01-2018,02:00,0.69746,R,ugm-3,3.03060,R,ugm-3,4.10003,R,ugm-3,75.73831,R,ugm-3
04-01-2018,03:00,0.41848,R,ugm-3,2.41970,R,ugm-3,3.06135,R,ugm-3,76.74614,R,ugm-3
04-01-2018,04:00,0.52310,R,ugm-3,3.62596,R,ugm-3,4.42803,R,ugm-3,76.59497,R,ugm-3
04-01-2018,05:00,0.45335,R,ugm-3,6.52092,R,ugm-3,7.21605,R,ugm-3,75.78870,R,ugm-3
04-01-2018,06:00,0.45335,R,ugm-3,11.60496,R,ugm-3,12.30009,R,ugm-3,64.70259,R,ugm-3
04-01-2018,07:00,1.11594,R,ugm-3,31.03448,R,ugm-3,32.74556,R,ugm-3,47.51911,R,ugm-3
04-01-2018,08:00,2.19700,R,ugm-3,43.37163,R,ugm-3,46.74032,R,ugm-3,38.90218,R,ugm-3
04-01-2018,09:00,5.47507,R,ugm-3,62.34417,R,ugm-3,70.73915,R,ugm-3,18.04013,R,ugm-3
04-01-2018,10:00,4.81248,R,ugm-3,48.21735,R,ugm-3,55.59638,R,ugm-3,22.17223,R,ugm-3
04-01-2018,11:00,6.73049,R,ugm-3,36.09237,R,ugm-3,46.41232,R,ugm-3,34.01421,R,ugm-3
04-01-2018,12:00,4.04527,R,ugm-3,27.85491,R,ugm-3,34.05757,R,ugm-3,45.90659,R,ugm-3
04-01-2018,13:00,1.88314,R,ugm-3,15.42601,R,ugm-3,18.31346,R,ugm-3,65.81120,R,ugm-3
04-01-2018,14:00,2.02264,R,ugm-3,12.04144,R,ugm-3,15.14277,R,ugm-3,68.73390,R,ugm-3
04-01-2018,15:00,1.32518,R,ugm-3,7.09749,R,ugm-3,9.12940,R,ugm-3,71.25348,R,ugm-3
04-01-2018,16:00,1.11594,R,ugm-3,6.37964,R,ugm-3,8.09072,R,ugm-3,78.66101,R,ugm-3
04-01-2018,17:00,1.01132,R,ugm-3,7.74273,R,ugm-3,9.29340,R,ugm-3,79.06415,R,ugm-3
04-01-2018,18:00,1.15081,R,ugm-3,10.20753,R,ugm-3,11.97208,R,ugm-3,76.59497,R,ugm-3
04-01-2018,19:00,0.94157,R,ugm-3,9.81769,R,ugm-3,11.26141,R,ugm-3,74.37774,R,ugm-3
04-01-2018,20:00,1.32518,R,ugm-3,18.85090,R,ugm-3,20.88281,R,ugm-3,63.94672,R,ugm-3
04-01-2018,21:00,0.76721,R,ugm-3,17.84776,R,ugm-3,19.02413,R,ugm-3,60.82245,R,ugm-3
04-01-2018,22:00,0.76721,R,ugm-3,16.31709,R,ugm-3,17.49345,R,ugm-3,60.46971,R,ugm-3
04-01-2018,23:00,0.90670,R,ugm-3,20.36723,R,ugm-3,21.75748,R,ugm-3,52.81021,R,ugm-3
04-01-2018,24:00,0.97645,R,ugm-3,27.14834,R,ugm-3,28.64553,R,ugm-3,43.58858,R,ugm-3
05-01-2018,01:00,2.69660,R,ugm-3,38.45407,R,ugm-3,42.58880,R,ugm-3,27.74888,R,ugm-3
05-01-2018,02:00,0.80201,R,ugm-3,15.88966,R,ugm-3,17.11939,R,ugm-3,56.13605,R,ugm-3
05-01-2018,03:00,0.69740,R,ugm-3,10.19775,R,ugm-3,11.26707,R,ugm-3,65.60964,R,ugm-3
05-01-2018,04:00,0.69740,R,ugm-3,5.82218,R,ugm-3,6.89151,R,ugm-3,71.70700,R,ugm-3
05-01-2018,05:00,0.66253,R,ugm-3,9.10263,R,ugm-3,10.11849,R,ugm-3,65.55924,R,ugm-3
05-01-2018,06:00,0.59279,R,ugm-3,17.57782,R,ugm-3,18.48675,R,ugm-3,57.34544,R,ugm-3
05-01-2018,07:00,0.90662,R,ugm-3,22.29260,R,ugm-3,23.68273,R,ugm-3,55.12822,R,ugm-3
05-01-2018,08:00,5.99762,R,ugm-3,53.31962,R,ugm-3,62.51584,R,ugm-3,26.70746,R,ugm-3
05-01-2018,09:00,5.57918,R,ugm-3,59.43067,R,ugm-3,67.98529,R,ugm-3,19.60226,R,ugm-3
05-01-2018,10:00,4.32386,R,ugm-3,42.81402,R,ugm-3,49.44385,R,ugm-3,42.22801,R,ugm-3
05-01-2018,11:00,2.33628,R,ugm-3,21.74132,R,ugm-3,25.32356,R,ugm-3,62.03184,R,ugm-3
05-01-2018,12:00,2.89420,R,ugm-3,24.87855,R,ugm-3,29.31627,R,ugm-3,55.22900,R,ugm-3
05-01-2018,13:00,2.30141,R,ugm-3,19.11475,R,ugm-3,22.64353,R,ugm-3,56.18644,R,ugm-3
05-01-2018,14:00,2.71985,R,ugm-3,17.76213,R,ugm-3,21.93250,R,ugm-3,54.22117,R,ugm-3
05-01-2018,15:00,3.34751,R,ugm-3,29.98111,R,ugm-3,35.11388,R,ugm-3,36.53378,R,ugm-3
05-01-2018,16:00,4.84691,R,ugm-3,39.22260,R,ugm-3,46.65443,R,ugm-3,28.87429,R,ugm-3
05-01-2018,17:00,20.32913,R,ugm-3,52.34763,R,ugm-3,83.51854,R,ugm-3,7.25637,R,ugm-3
05-01-2018,18:00,16.98163,R,ugm-3,62.67639,R,ugm-3,88.71452,R,ugm-3,7.10519,R,ugm-3
05-01-2018,19:00,39.40295,R,ugm-3,46.78425,R,ugm-3,107.20127,R,ugm-3,4.08171,R,ugm-3
05-01-2018,20:00,72.35498,R,ugm-3,43.02233,R,ugm-3,153.96508,R,ugm-3,3.72897,R,ugm-3
05-01-2018,21:00,101.01801,R,ugm-3,43.48491,R,ugm-3,198.37704,R,ugm-3,3.72897,R,ugm-3
05-01-2018,22:00,109.42165,R,ugm-3,41.04617,R,ugm-3,208.82369,R,ugm-3,3.37623,R,ugm-3
05-01-2018,23:00,97.60076,R,ugm-3,39.70002,R,ugm-3,189.35244,R,ugm-3,3.12427,R,ugm-3
05-01-2018,24:00,101.85489,R,ugm-3,39.30291,R,ugm-3,195.47822,R,ugm-3,2.92270,R,ugm-3
06-01-2018,01:00,81.21620,R,ugm-3,37.59329,R,ugm-3,162.12306,R,ugm-3,2.48598,R,ugm-3
06-01-2018,02:00,79.74018,R,ugm-3,37.90474,R,ugm-3,160.17131,R,ugm-3,2.62035,R,ugm-3
06-01-2018,03:00,54.84534,R,ugm-3,32.40813,R,ugm-3,116.50315,R,ugm-3,2.41879,R,ugm-3
06-01-2018,04:00,29.56697,R,ugm-3,31.54902,R,ugm-3,76.88442,R,ugm-3,2.36840,R,ugm-3
06-01-2018,05:00,6.24114,R,ugm-3,28.29801,R,ugm-3,37.86763,R,ugm-3,8.06263,R,ugm-3
06-01-2018,06:00,7.81014,R,ugm-3,36.78192,R,ugm-3,48.75731,R,ugm-3,6.75245,R,ugm-3
06-01-2018,07:00,19.03723,R,ugm-3,44.95831,R,ugm-3,74.14832,R,ugm-3,3.47701,R,ugm-3
06-01-2018,08:00,15.09729,R,ugm-3,45.36310,R,ugm-3,68.51195,R,ugm-3,5.54306,R,ugm-3
06-01-2018,09:00,5.16027,R,ugm-3,31.70642,R,ugm-3,39.61873,R,ugm-3,16.47800,R,ugm-3
06-01-2018,10:00,2.99854,R,ugm-3,20.46499,R,ugm-3,25.06268,R,ugm-3,29.83172,R,ugm-3
06-01-2018,11:00,2.58014,R,ugm-3,15.85321,R,ugm-3,19.80937,R,ugm-3,34.66930,R,ugm-3
06-01-2018,12:00,4.56754,R,ugm-3,16.85533,R,ugm-3,23.85879,R,ugm-3,32.95599,R,ugm-3
06-01-2018,13:00,3.83534,R,ugm-3,16.50053,R,ugm-3,22.38130,R,ugm-3,41.52253,R,ugm-3
06-01-2018,14:00,2.96367,R,ugm-3,14.55375,R,ugm-3,19.09798,R,ugm-3,46.15855,R,ugm-3
06-01-2018,15:00,1.91767,R,ugm-3,12.38178,R,ugm-3,15.32216,R,ugm-3,54.37235,R,ugm-3
06-01-2018,16:00,1.49927,R,ugm-3,16.25191,R,ugm-3,18.55076,R,ugm-3,54.67470,R,ugm-3
06-01-2018,17:00,1.49927,R,ugm-3,20.30134,R,ugm-3,22.60019,R,ugm-3,49.03086,R,ugm-3
06-01-2018,18:00,1.25520,R,ugm-3,22.59084,R,ugm-3,24.51546,R,ugm-3,48.62773,R,ugm-3
06-01-2018,19:00,1.35980,R,ugm-3,21.60963,R,ugm-3,23.69463,R,ugm-3,50.29064,R,ugm-3
06-01-2018,20:00,1.63874,R,ugm-3,22.49526,R,ugm-3,25.00796,R,ugm-3,48.22459,R,ugm-3
06-01-2018,21:00,1.11574,R,ugm-3,17.44193,R,ugm-3,19.15270,R,ugm-3,53.01178,R,ugm-3
06-01-2018,22:00,0.87167,R,ugm-3,20.44282,R,ugm-3,21.77936,R,ugm-3,47.01520,R,ugm-3
06-01-2018,23:00,0.80193,R,ugm-3,20.93280,R,ugm-3,22.16241,R,ugm-3,45.20111,R,ugm-3
06-01-2018,24:00,0.73220,R,ugm-3,19.45278,R,ugm-3,20.57547,R,ugm-3,45.45307,R,ugm-3
07-01-2018,01:00,0.55782,R,ugm-3,14.98555,R,ugm-3,15.84085,R,ugm-3,47.77107,R,ugm-3
07-01-2018,02:00,0.83673,R,ugm-3,15.14188,R,ugm-3,16.42485,R,ugm-3,47.06559,R,ugm-3
07-01-2018,03:00,0.83673,R,ugm-3,26.03703,R,ugm-3,27.31999,R,ugm-3,38.49905,R,ugm-3
07-01-2018,04:00,0.83673,R,ugm-3,18.26261,R,ugm-3,19.54557,R,ugm-3,45.35228,R,ugm-3
07-01-2018,05:00,0.66241,R,ugm-3,6.48500,R,ugm-3,7.50068,R,ugm-3,59.15953,R,ugm-3
07-01-2018,06:00,0.55782,R,ugm-3,7.79511,R,ugm-3,8.65042,R,ugm-3,58.25249,R,ugm-3
07-01-2018,07:00,0.62754,R,ugm-3,9.76868,R,ugm-3,10.73090,R,ugm-3,53.46530,R,ugm-3
07-01-2018,08:00,1.04591,R,ugm-3,11.15293,R,ugm-3,12.75663,R,ugm-3,50.79456,R,ugm-3
07-01-2018,09:00,1.15050,R,ugm-3,13.12779,R,ugm-3,14.89186,R,ugm-3,49.13164,R,ugm-3
07-01-2018,10:00,2.23127,R,ugm-3,16.12434,R,ugm-3,19.54557,R,ugm-3,46.66246,R,ugm-3
07-01-2018,11:00,3.83499,R,ugm-3,16.45755,R,ugm-3,22.33779,R,ugm-3,47.26716,R,ugm-3
07-01-2018,12:00,4.70658,R,ugm-3,16.65412,R,ugm-3,23.87078,R,ugm-3,48.67812,R,ugm-3
07-01-2018,13:00,4.32308,R,ugm-3,15.98291,R,ugm-3,22.61154,R,ugm-3,51.50004,R,ugm-3
07-01-2018,14:00,2.33586,R,ugm-3,9.33928,R,ugm-3,12.92088,R,ugm-3,61.52793,R,ugm-3
07-01-2018,15:00,1.84777,R,ugm-3,9.81393,R,ugm-3,12.64713,R,ugm-3,61.67910,R,ugm-3
07-01-2018,16:00,1.53400,R,ugm-3,12.53977,R,ugm-3,14.89186,R,ugm-3,59.81462,R,ugm-3
07-01-2018,17:00,1.25509,R,ugm-3,17.29263,R,ugm-3,19.21707,R,ugm-3,55.98487,R,ugm-3
07-01-2018,18:00,1.28995,R,ugm-3,16.80118,R,ugm-3,18.77908,R,ugm-3,55.83370,R,ugm-3
07-01-2018,19:00,1.22023,R,ugm-3,18.66007,R,ugm-3,20.53106,R,ugm-3,54.47313,R,ugm-3
07-01-2018,20:00,0.97618,R,ugm-3,14.76381,R,ugm-3,16.26060,R,ugm-3,58.20210,R,ugm-3
07-01-2018,21:00,1.18536,R,ugm-3,14.66207,R,ugm-3,16.47960,R,ugm-3,57.59740,R,ugm-3
07-01-2018,22:00,0.83673,R,ugm-3,15.52513,R,ugm-3,16.80809,R,ugm-3,55.53135,R,ugm-3
07-01-2018,23:00,0.83673,R,ugm-3,10.15968,R,ugm-3,11.44264,R,ugm-3,61.52793,R,ugm-3
07-01-2018,24:00,0.41836,R,ugm-3,8.93968,R,ugm-3,9.58116,R,ugm-3,62.23341,R,ugm-3
08-01-2018,01:00,0.27888,R,ugm-3,7.46027,R,ugm-3,7.88788,R,ugm-3,62.95569,R,ugm-3
08-01-2018,02:00,0.66235,R,ugm-3,5.22899,R,ugm-3,6.24458,R,ugm-3,65.76081,R,ugm-3
08-01-2018,03:00,0.73207,R,ugm-3,5.17686,R,ugm-3,6.29935,R,ugm-3,64.80337,R,ugm-3
08-01-2018,04:00,0.41832,R,ugm-3,5.87704,R,ugm-3,6.51846,R,ugm-3,64.50102,R,ugm-3
08-01-2018,05:00,0.66235,R,ugm-3,7.74873,R,ugm-3,8.76431,R,ugm-3,63.29163,R,ugm-3
08-01-2018,06:00,1.15039,R,ugm-3,13.08065,R,ugm-3,14.84456,R,ugm-3,58.00053,R,ugm-3
08-01-2018,07:00,1.74302,R,ugm-3,19.89552,R,ugm-3,22.56811,R,ugm-3,52.96139,R,ugm-3
08-01-2018,08:00,2.89341,R,ugm-3,34.72903,R,ugm-3,39.16553,R,ugm-3,37.94474,R,ugm-3
08-01-2018,09:00,6.90236,R,ugm-3,51.86227,R,ugm-3,62.44575,R,ugm-3,22.77692,R,ugm-3
08-01-2018,10:00,9.55175,R,ugm-3,49.49802,R,ugm-3,64.14383,R,ugm-3,26.00198,R,ugm-3
08-01-2018,11:00,5.08962,R,ugm-3,37.11314,R,ugm-3,44.91712,R,ugm-3,35.32439,R,ugm-3
08-01-2018,12:00,4.91532,R,ugm-3,33.60079,R,ugm-3,41.13750,R,ugm-3,36.08026,R,ugm-3
08-01-2018,13:00,4.77588,R,ugm-3,29.10378,R,ugm-3,36.42668,R,ugm-3,37.39044,R,ugm-3
08-01-2018,14:00,3.90437,R,ugm-3,27.37256,R,ugm-3,33.35917,R,ugm-3,36.93692,R,ugm-3
08-01-2018,15:00,7.00694,R,ugm-3,35.65227,R,ugm-3,46.39609,R,ugm-3,26.20354,R,ugm-3
08-01-2018,16:00,8.01789,R,ugm-3,39.96330,R,ugm-3,52.25723,R,ugm-3,16.37721,R,ugm-3
08-01-2018,17:00,10.00494,R,ugm-3,43.81844,R,ugm-3,59.15913,R,ugm-3,9.57437,R,ugm-3
08-01-2018,18:00,7.46013,R,ugm-3,39.12044,R,ugm-3,50.55914,R,ugm-3,9.92711,R,ugm-3
08-01-2018,19:00,6.24001,R,ugm-3,36.17088,R,ugm-3,45.73877,R,ugm-3,8.81850,R,ugm-3
08-01-2018,20:00,5.78683,R,ugm-3,34.34602,R,ugm-3,43.21903,R,ugm-3,9.27202,R,ugm-3
08-01-2018,21:00,3.69520,R,ugm-3,26.98118,R,ugm-3,32.64707,R,ugm-3,14.76469,R,ugm-3
08-01-2018,22:00,1.84760,R,ugm-3,20.28293,R,ugm-3,23.11588,R,ugm-3,21.41636,R,ugm-3
08-01-2018,23:00,1.39442,R,ugm-3,16.54087,R,ugm-3,18.67895,R,ugm-3,23.83514,R,ugm-3
08-01-2018,24:00,1.18525,R,ugm-3,15.65649,R,ugm-3,17.47385,R,ugm-3,22.77692,R,ugm-3
09-01-2018,01:00,1.06896,R,ugm-3,16.70218,R,ugm-3,18.34122,R,ugm-3,20.55970,R,ugm-3
09-01-2018,02:00,1.46401,R,ugm-3,19.40298,R,ugm-3,21.64776,R,ugm-3,17.03230,R,ugm-3
09-01-2018,03:00,1.28972,R,ugm-3,21.80759,R,ugm-3,23.78513,R,ugm-3,13.75686,R,ugm-3
09-01-2018,04:00,1.67315,R,ugm-3,20.06878,R,ugm-3,22.63424,R,ugm-3,15.52056,R,ugm-3
09-01-2018,05:00,1.74286,R,ugm-3,18.31775,R,ugm-3,20.99010,R,ugm-3,16.17565,R,ugm-3
09-01-2018,06:00,2.89315,R,ugm-3,21.04797,R,ugm-3,25.48407,R,ugm-3,14.00882,R,ugm-3
09-01-2018,07:00,6.23945,R,ugm-3,25.78185,R,ugm-3,35.34887,R,ugm-3,10.12868,R,ugm-3
09-01-2018,08:00,9.02803,R,ugm-3,30.71324,R,ugm-3,44.55602,R,ugm-3,6.50049,R,ugm-3
09-01-2018,09:00,24.78351,R,ugm-3,36.53321,R,ugm-3,74.53405,R,ugm-3,5.08953,R,ugm-3
09-01-2018,10:00,20.91435,R,ugm-3,34.46438,R,ugm-3,66.53260,R,ugm-3,4.98875,R,ugm-3
09-01-2018,11:00,17.60291,R,ugm-3,32.91051,R,ugm-3,59.90127,R,ugm-3,7.00441,R,ugm-3
09-01-2018,12:00,20.63549,R,ugm-3,31.38447,R,ugm-3,63.02512,R,ugm-3,7.60911,R,ugm-3
09-01-2018,13:00,26.77037,R,ugm-3,33.32231,R,ugm-3,74.36964,R,ugm-3,6.50049,R,ugm-3
09-01-2018,14:00,26.56123,R,ugm-3,33.47858,R,ugm-3,74.20523,R,ugm-3,5.79501,R,ugm-3
09-01-2018,15:00,37.40183,R,ugm-3,34.72281,R,ugm-3,92.07148,R,ugm-3,5.03914,R,ugm-3
09-01-2018,16:00,41.93327,R,ugm-3,39.06441,R,ugm-3,103.36119,R,ugm-3,4.68640,R,ugm-3
09-01-2018,17:00,39.56298,R,ugm-3,36.56071,R,ugm-3,97.22310,R,ugm-3,4.18249,R,ugm-3
09-01-2018,18:00,40.92241,R,ugm-3,38.03856,R,ugm-3,100.78539,R,ugm-3,4.03131,R,ugm-3
09-01-2018,19:00,39.38869,R,ugm-3,38.63649,R,ugm-3,99.03164,R,ugm-3,4.13210,R,ugm-3
09-01-2018,20:00,27.99037,R,ugm-3,38.35703,R,ugm-3,81.27500,R,ugm-3,4.48484,R,ugm-3
09-01-2018,21:00,18.43949,R,ugm-3,38.91677,R,ugm-3,67.19026,R,ugm-3,4.73679,R,ugm-3
09-01-2018,22:00,10.80575,R,ugm-3,37.52341,R,ugm-3,54.09199,R,ugm-3,5.54306,R,ugm-3
09-01-2018,23:00,3.34630,R,ugm-3,34.16388,R,ugm-3,39.29479,R,ugm-3,9.47359,R,ugm-3
09-01-2018,24:00,2.02172,R,ugm-3,29.78274,R,ugm-3,32.88267,R,ugm-3,13.40412,R,ugm-3
10-01-2018,01:00,1.53358,R,ugm-3,23.67543,R,ugm-3,26.02689,R,ugm-3,19.61906,R,ugm-3
10-01-2018,02:00,1.56844,R,ugm-3,20.78901,R,ugm-3,23.19391,R,ugm-3,20.15657,R,ugm-3
10-01-2018,03:00,0.90621,R,ugm-3,19.22731,R,ugm-3,20.61681,R,ugm-3,20.35814,R,ugm-3
10-01-2018,04:00,1.77756,R,ugm-3,22.11331,R,ugm-3,24.83887,R,ugm-3,11.23729,R,ugm-3
10-01-2018,05:00,10.90933,R,ugm-3,18.41986,R,ugm-3,35.14727,R,ugm-3,5.64384,R,ugm-3
10-01-2018,06:00,15.23124,R,ugm-3,23.30773,R,ugm-3,46.66197,R,ugm-3,5.89580,R,ugm-3
10-01-2018,07:00,21.88837,R,ugm-3,35.96519,R,ugm-3,69.52689,R,ugm-3,5.74462,R,ugm-3
10-01-2018,08:00,38.96688,R,ugm-3,46.18691,R,ugm-3,105.93530,R,ugm-3,5.59345,R,ugm-3
10-01-2018,09:00,111.14971,R,ugm-3,61.51189,R,ugm-3,231.93908,R,ugm-3,5.74462,R,ugm-3
10-01-2018,10:00,87.48378,R,ugm-3,53.71427,R,ugm-3,187.85420,R,ugm-3,6.95402,R,ugm-3
10-01-2018,11:00,45.48460,R,ugm-3,49.40772,R,ugm-3,119.14979,R,ugm-3,23.38162,R,ugm-3
10-01-2018,12:00,5.05384,R,ugm-3,19.28302,R,ugm-3,27.03214,R,ugm-3,56.58957,R,ugm-3
10-01-2018,13:00,5.15841,R,ugm-3,20.00001,R,ugm-3,27.90946,R,ugm-3,56.28722,R,ugm-3
10-01-2018,14:00,,,,,,,,,,39.05335,R,ugm-3
10-01-2018,15:00,,,,,,,,,,,,
10-01-2018,16:00,6.64552,R,ugm-3,45.22716,R,ugm-3,55.41681,R,ugm-3,33.81265,R,ugm-3
10-01-2018,17:00,17.77559,R,ugm-3,40.40708,R,ugm-3,67.66261,R,ugm-3,8.31459,R,ugm-3
10-01-2018,18:00,63.19048,R,ugm-3,46.38513,R,ugm-3,143.27584,R,ugm-3,3.47701,R,ugm-3
10-01-2018,19:00,146.97972,R,ugm-3,52.41281,R,ugm-3,277.77857,R,ugm-3,3.17466,R,ugm-3
10-01-2018,20:00,213.89959,R,ugm-3,55.90357,R,ugm-3,383.87836,R,ugm-3,3.37623,R,ugm-3
10-01-2018,21:00,220.62643,R,ugm-3,51.23691,R,ugm-3,389.52605,R,ugm-3,3.32583,R,ugm-3
10-01-2018,22:00,199.67912,R,ugm-3,43.10904,R,ugm-3,349.27941,R,ugm-3,3.47701,R,ugm-3
10-01-2018,23:00,159.28322,R,ugm-3,36.89246,R,ugm-3,281.12332,R,ugm-3,3.02349,R,ugm-3
10-01-2018,24:00,149.00126,R,ugm-3,42.34950,R,ugm-3,270.81492,R,ugm-3,3.07388,R,ugm-3
11-01-2018,01:00,35.00065,R,ugm-3,48.94824,R,ugm-3,102.61516,R,ugm-3,4.36726,R,ugm-3
11-01-2018,02:00,2.05470,R,ugm-3,39.10710,R,ugm-3,42.25759,R,ugm-3,15.26860,R,ugm-3
11-01-2018,03:00,6.23494,R,ugm-3,47.47670,R,ugm-3,57.03680,R,ugm-3,6.24854,R,ugm-3
11-01-2018,04:00,2.65693,R,ugm-3,44.25958,R,ugm-3,48.33349,R,ugm-3,9.82633,R,ugm-3
11-01-2018,05:00,2.30267,R,ugm-3,41.90167,R,ugm-3,45.43239,R,ugm-3,10.07829,R,ugm-3
11-01-2018,06:00,3.82598,R,ugm-3,38.58068,R,ugm-3,44.44710,R,ugm-3,11.64042,R,ugm-3
11-01-2018,07:00,4.67620,R,ugm-3,34.32119,R,ugm-3,41.49126,R,ugm-3,12.09394,R,ugm-3
11-01-2018,08:00,5.91610,R,ugm-3,35.32114,R,ugm-3,44.39237,R,ugm-3,11.69081,R,ugm-3
11-01-2018,09:00,7.47484,R,ugm-3,33.69744,R,ugm-3,45.15870,R,ugm-3,11.79159,R,ugm-3
11-01-2018,10:00,7.19143,R,ugm-3,28.22031,R,ugm-3,39.24701,R,ugm-3,16.67956,R,ugm-3
11-01-2018,11:00,8.43133,R,ugm-3,25.88125,R,ugm-3,38.80911,R,ugm-3,18.94718,R,ugm-3
11-01-2018,12:00,6.23494,R,ugm-3,22.95416,R,ugm-3,32.51426,R,ugm-3,26.50589,R,ugm-3
11-01-2018,13:00,8.32505,R,ugm-3,22.32203,R,ugm-3,35.08694,R,ugm-3,29.93251,R,ugm-3
11-01-2018,14:00,6.87260,R,ugm-3,22.14064,R,ugm-3,32.67847,R,ugm-3,29.93251,R,ugm-3
11-01-2018,15:00,5.24301,R,ugm-3,25.07720,R,ugm-3,33.11638,R,ugm-3,27.61450,R,ugm-3
11-01-2018,16:00,5.52642,R,ugm-3,32.63437,R,ugm-3,41.10810,R,ugm-3,20.25735,R,ugm-3
11-01-2018,17:00,4.78248,R,ugm-3,38.70147,R,ugm-3,46.03450,R,ugm-3,14.00882,R,ugm-3
11-01-2018,18:00,10.76943,R,ugm-3,45.66926,R,ugm-3,62.18216,R,ugm-3,7.70989,R,ugm-3
11-01-2018,19:00,8.78559,R,ugm-3,46.41212,R,ugm-3,59.88317,R,ugm-3,7.65950,R,ugm-3
11-01-2018,20:00,5.91610,R,ugm-3,43.36760,R,ugm-3,52.43883,R,ugm-3,7.96185,R,ugm-3
11-01-2018,21:00,5.10131,R,ugm-3,40.84002,R,ugm-3,48.66192,R,ugm-3,7.86106,R,ugm-3
11-01-2018,22:00,7.40398,R,ugm-3,44.09679,R,ugm-3,55.44941,R,ugm-3,4.08171,R,ugm-3
11-01-2018,23:00,5.31387,R,ugm-3,38.26985,R,ugm-3,46.41767,R,ugm-3,5.94619,R,ugm-3
11-01-2018,24:00,4.25109,R,ugm-3,36.12251,R,ugm-3,42.64076,R,ugm-3,5.89580,R,ugm-3
12-01-2018,01:00,11.24828,R,ugm-3,36.88657,R,ugm-3,54.13369,R,ugm-3,3.42662,R,ugm-3
12-01-2018,02:00,8.43621,R,ugm-3,33.83967,R,ugm-3,46.77500,R,ugm-3,3.82975,R,ugm-3
12-01-2018,03:00,2.29437,R,ugm-3,30.79826,R,ugm-3,34.31624,R,ugm-3,6.29893,R,ugm-3
12-01-2018,04:00,1.83549,R,ugm-3,27.95002,R,ugm-3,30.76440,R,ugm-3,7.05480,R,ugm-3
12-01-2018,05:00,8.96568,R,ugm-3,30.56886,R,ugm-3,44.31604,R,ugm-3,3.98092,R,ugm-3
12-01-2018,06:00,18.74320,R,ugm-3,28.14491,R,ugm-3,56.88409,R,ugm-3,3.62818,R,ugm-3
12-01-2018,07:00,36.56866,R,ugm-3,29.44622,R,ugm-3,85.51738,R,ugm-3,3.88014,R,ugm-3
12-01-2018,08:00,60.81834,R,ugm-3,31.33414,R,ugm-3,124.58762,R,ugm-3,4.23288,R,ugm-3
12-01-2018,09:00,72.74904,R,ugm-3,33.80526,R,ugm-3,145.35223,R,ugm-3,4.28327,R,ugm-3
12-01-2018,10:00,53.97054,R,ugm-3,35.65922,R,ugm-3,118.41289,R,ugm-3,5.08953,R,ugm-3
12-01-2018,11:00,36.07449,R,ugm-3,34.68472,R,ugm-3,89.99817,R,ugm-3,7.20597,R,ugm-3
12-01-2018,12:00,24.84975,R,ugm-3,33.53547,R,ugm-3,71.63788,R,ugm-3,9.77594,R,ugm-3
12-01-2018,13:00,22.73187,R,ugm-3,33.88672,R,ugm-3,68.74177,R,ugm-3,8.66733,R,ugm-3
12-01-2018,14:00,23.22604,R,ugm-3,34.33117,R,ugm-3,69.94393,R,ugm-3,7.76028,R,ugm-3
12-01-2018,15:00,16.62533,R,ugm-3,32.48515,R,ugm-3,57.97696,R,ugm-3,10.27985,R,ugm-3
12-01-2018,16:00,21.95531,R,ugm-3,35.45993,R,ugm-3,69.12427,R,ugm-3,7.86106,R,ugm-3
12-01-2018,17:00,21.07287,R,ugm-3,39.98233,R,ugm-3,72.29361,R,ugm-3,4.73679,R,ugm-3
12-01-2018,18:00,31.30927,R,ugm-3,41.33557,R,ugm-3,89.34244,R,ugm-3,3.57779,R,ugm-3
12-01-2018,19:00,28.27364,R,ugm-3,40.74433,R,ugm-3,84.09665,R,ugm-3,3.98092,R,ugm-3
12-01-2018,20:00,19.87274,R,ugm-3,40.67499,R,ugm-3,71.14609,R,ugm-3,3.77936,R,ugm-3